GROUP/SHIP,CRUISE_DESIGNATION,JD_GMT,DATE_DDMMYYYY,TIME_HH:MM:SS,LAT_DEC_DEGREE,LONG_DEC_DEGREE,xCO2W_PPM,xCO2A_PPM,PRES_EQUIL_hPa,PRES_SEALEVEL_hPa,EqTEMP_C,SST(TSG)_C,SAL(TSG)_PERMIL,WATER_FLOW_L/MIN,GAS_FLOW_IR_ML/MIN,TEMP_IR_C,PRES_IR_hPa,SHIP_HEADING_TRUE_DEGREE,SHIP_SPEED_KNOT,WIND_DIR_REL_DEGREE,WIND_SPEED_REL_M/S,fCO2W@SST_uATM,QC_FLAG_WATER,fCO2A_uATM,QC_FLAG_AIR,dfCO2_uATM,FLUORO_uG/L,WIND_SPEED_TRUE_M/S,WIND_DIR_TRUE_DEGREE,AIR_TEMP_C
AOML_Brown,RB200708,254.964,11092007,23:08:26,32.541,-79.495,-999.99,386.35,1012.57,1013.21,28.12,27.95,35.56,11.68,565.15,28.84,1012.57,132.90,12.40,46.10,15.58,-999.99,4,371.15,2,-999.99,1.36,12.52,206.12,27.79
AOML_Brown,RB200708,254.967,11092007,23:13:06,32.530,-79.481,426.89,386.35,1012.47,1013.26,28.13,27.96,35.62,11.55,564.97,29.46,1012.47,134.10,12.30,48.20,15.58,406.72,2,371.15,2,35.57,1.34,12.67,208.88,27.79
AOML_Brown,RB200708,254.970,11092007,23:17:26,32.520,-79.468,424.80,386.35,1012.59,1013.21,28.15,27.97,35.66,11.48,566.95,30.03,1012.59,132.90,12.40,49.10,15.78,404.56,2,371.15,2,33.40,1.30,13.04,209.30,27.76
AOML_Brown,RB200708,254.974,11092007,23:22:06,32.509,-79.454,422.65,386.35,1012.55,1013.23,28.14,27.97,35.70,11.55,566.04,30.54,1012.55,133.30,12.50,53.90,14.78,402.64,2,371.15,2,31.48,1.23,12.70,217.16,27.79
AOML_Brown,RB200708,254.985,11092007,23:38:26,32.470,-79.404,-999.99,386.35,1012.66,1013.32,28.02,27.82,35.72,11.43,563.85,32.04,1012.66,131.60,12.70,42.40,14.58,-999.99,4,371.15,2,-999.99,1.28,11.22,203.53,27.91
AOML_Brown,RB200708,254.988,11092007,23:43:06,32.459,-79.390,423.87,386.35,1012.63,1013.36,28.04,27.85,35.75,11.43,565.02,32.36,1012.63,134.30,12.60,47.10,15.68,403.65,2,371.15,2,32.49,1.31,12.86,210.31,27.99
AOML_Brown,RB200708,254.991,11092007,23:47:26,32.448,-79.377,422.09,386.35,1012.70,1013.34,28.04,27.88,35.81,11.47,565.29,32.65,1012.70,132.90,12.80,46.70,14.18,402.49,2,371.15,2,31.34,1.29,11.19,209.72,28.01
AOML_Brown,RB200708,254.995,11092007,23:52:06,32.437,-79.362,421.22,386.35,1012.62,1013.42,28.06,27.88,35.90,11.44,565.43,32.90,1012.62,132.70,12.60,46.80,13.68,401.18,2,371.15,2,30.02,1.30,11.07,213.77,28.04
AOML_Brown,RB200708,255.006,12092007,00:08:26,32.397,-79.312,-999.99,383.85,1012.90,1013.53,27.95,27.78,35.99,11.52,565.86,33.09,1012.90,133.50,12.90,52.00,13.08,-999.99,4,368.84,2,-999.99,1.55,10.90,220.03,28.23
AOML_Brown,RB200708,255.009,12092007,00:13:06,32.386,-79.297,420.04,383.85,1012.96,1013.60,27.96,27.77,35.99,11.36,565.58,33.00,1012.96,133.00,12.80,53.80,13.98,399.97,2,368.84,2,31.13,1.53,11.98,219.89,28.31
AOML_Brown,RB200708,255.012,12092007,00:17:26,32.376,-79.284,418.44,383.85,1013.07,1013.67,27.97,27.79,35.99,11.42,565.81,33.03,1013.07,133.00,12.70,51.00,14.48,398.86,2,368.84,2,30.01,1.48,12.10,216.07,28.36
AOML_Brown,RB200708,255.015,12092007,00:22:06,32.364,-79.269,417.21,383.85,1013.02,1013.71,28.02,27.83,35.99,11.45,565.76,33.15,1013.02,132.50,12.70,53.40,14.68,397.28,2,368.84,2,28.44,1.37,12.75,218.97,28.38
AOML_Brown,RB200708,255.027,12092007,00:38:26,32.325,-79.219,-999.99,383.85,1013.22,1013.81,28.64,28.44,35.98,11.50,566.88,33.22,1013.22,132.60,13.00,47.20,16.08,-999.99,4,368.84,2,-999.99,0.97,13.39,211.69,28.58
AOML_Brown,RB200708,255.030,12092007,00:43:06,32.313,-79.205,405.43,383.85,1013.40,1013.85,29.02,28.89,36.14,11.47,567.24,33.11,1013.40,134.60,12.60,52.50,16.18,386.41,2,368.84,2,17.57,0.84,13.85,218.75,28.61
AOML_Brown,RB200708,255.033,12092007,00:47:26,32.303,-79.191,402.41,383.85,1013.41,1014.07,29.21,29.11,36.16,11.40,567.17,33.12,1013.41,133.00,12.90,49.70,15.78,383.94,2,368.84,2,15.10,0.81,13.33,213.26,28.66
AOML_Brown,RB200708,255.036,12092007,00:52:06,32.292,-79.177,401.83,383.85,1013.58,1014.20,29.27,29.18,36.18,11.29,567.04,33.23,1013.58,132.30,12.70,51.30,15.48,383.50,2,368.84,2,14.66,0.78,13.35,215.61,28.58
AOML_Brown,RB200708,255.048,12092007,01:08:26,32.253,-79.127,403.63,382.06,1013.67,1014.37,29.64,29.54,36.18,11.59,567.15,33.27,1013.67,129.80,12.90,43.70,16.48,384.63,2,366.33,2,18.30,0.75,13.40,207.30,28.78
AOML_Brown,RB200708,255.051,12092007,01:13:06,32.241,-79.113,403.28,382.06,1013.80,1014.34,29.63,29.53,36.20,11.41,567.20,33.16,1013.80,133.00,12.70,45.30,17.18,384.48,2,366.33,2,18.15,0.75,13.85,203.40,28.76
AOML_Brown,RB200708,255.054,12092007,01:17:26,32.231,-79.099,403.60,382.06,1014.03,1014.44,29.59,29.46,36.19,11.25,567.25,33.17,1014.03,131.00,12.70,51.10,15.98,384.51,2,366.33,2,18.18,0.75,13.80,214.22,28.73
AOML_Brown,RB200708,255.057,12092007,01:22:06,32.220,-79.085,403.49,382.06,1013.85,1014.48,29.57,29.44,36.16,11.41,567.37,33.29,1013.85,133.60,12.30,57.50,15.88,384.30,2,366.33,2,17.97,0.75,14.26,220.75,28.76
AOML_Brown,RB200708,255.068,12092007,01:38:26,32.182,-79.036,-999.99,382.06,1014.37,1014.79,29.42,29.29,36.14,11.36,567.33,33.21,1014.37,132.50,12.50,57.60,15.28,-999.99,4,366.33,2,-999.99,0.76,13.53,220.15,28.78
AOML_Brown,RB200708,255.072,12092007,01:43:06,32.170,-79.022,403.21,382.06,1014.23,1014.89,29.41,29.27,36.14,11.26,567.06,33.14,1014.23,132.10,12.50,51.50,15.58,384.17,2,366.33,2,17.84,0.76,13.07,211.95,28.73
AOML_Brown,RB200708,255.075,12092007,01:47:26,32.160,-79.009,402.25,382.06,1014.31,1014.88,29.39,29.26,36.14,11.12,566.74,33.20,1014.31,134.20,12.40,49.80,15.68,383.38,2,366.33,2,17.05,0.76,12.89,211.08,28.66
AOML_Brown,RB200708,255.078,12092007,01:52:06,32.149,-78.995,401.97,382.06,1014.30,1015.02,29.45,29.30,36.14,11.31,566.92,33.34,1014.30,132.80,12.30,52.20,15.98,382.73,2,366.33,2,16.40,0.75,13.64,213.29,28.66
AOML_Brown,RB200708,255.089,12092007,02:08:26,32.112,-78.948,-999.99,381.19,1014.35,1014.95,29.57,29.47,36.12,11.25,565.86,33.21,1014.35,131.00,12.20,43.70,16.88,-999.99,4,365.57,2,-999.99,0.76,13.58,203.71,28.51
AOML_Brown,RB200708,255.092,12092007,02:13:06,32.101,-78.934,407.54,381.19,1014.42,1015.05,29.61,29.47,36.09,11.29,566.10,33.20,1014.42,133.30,12.10,51.00,17.18,388.26,2,365.57,2,22.69,0.78,14.49,207.70,28.26
AOML_Brown,RB200708,255.095,12092007,02:17:26,32.091,-78.921,407.51,381.19,1014.41,1015.13,29.59,29.48,36.10,11.19,564.43,33.30,1014.41,132.20,12.20,55.90,16.08,388.58,2,365.57,2,23.00,0.79,13.53,210.80,28.23
AOML_Brown,RB200708,255.099,12092007,02:22:06,32.081,-78.908,407.28,381.19,1014.34,1015.07,29.60,29.47,36.08,11.30,564.27,33.45,1014.34,132.00,12.20,50.80,16.18,388.04,2,365.57,2,22.47,0.81,13.39,206.82,28.28
AOML_Brown,RB200708,255.110,12092007,02:38:26,32.044,-78.860,-999.99,381.19,1014.42,1015.07,29.64,29.50,36.07,11.34,566.98,33.27,1014.42,134.20,11.90,51.50,14.38,-999.99,4,365.57,2,-999.99,0.81,11.32,206.16,28.31
AOML_Brown,RB200708,255.113,12092007,02:43:06,32.033,-78.847,407.28,381.19,1014.39,1015.10,29.66,29.52,36.08,11.38,567.90,33.25,1014.39,136.30,12.10,53.80,15.58,387.84,2,365.57,2,22.27,0.80,12.99,213.76,28.28
AOML_Brown,RB200708,255.116,12092007,02:47:26,32.023,-78.834,407.16,381.19,1014.37,1015.08,29.68,29.54,36.09,11.51,568.98,33.34,1014.37,130.60,12.20,51.10,15.58,387.65,2,365.57,2,22.08,0.79,12.70,208.88,28.38
AOML_Brown,RB200708,255.120,12092007,02:52:06,32.012,-78.821,407.35,381.19,1014.46,1015.06,29.70,29.56,36.09,11.55,568.92,33.49,1014.46,135.50,12.20,53.80,14.88,388.00,2,365.57,2,22.43,0.78,12.08,211.43,28.36
AOML_Brown,RB200708,255.131,12092007,03:08:26,31.974,-78.772,-999.99,380.90,1014.48,1015.19,29.76,29.61,36.12,11.58,568.46,34.07,1014.48,133.10,12.30,42.20,13.98,-999.99,4,365.36,2,-999.99,0.82,10.28,203.73,28.23
AOML_Brown,RB200708,255.134,12092007,03:13:06,31.963,-78.758,406.64,380.90,1014.44,1015.26,29.74,29.60,36.10,11.47,568.46,34.12,1014.44,131.80,12.60,59.80,14.18,387.23,2,365.36,2,21.87,0.80,12.27,218.75,28.09
AOML_Brown,RB200708,255.137,12092007,03:17:26,31.953,-78.745,406.15,380.90,1014.57,1015.15,29.67,29.55,36.11,11.24,568.63,34.11,1014.57,131.90,12.80,51.50,13.98,387.08,2,365.36,2,21.72,0.80,11.17,211.56,28.19
AOML_Brown,RB200708,255.140,12092007,03:22:06,31.941,-78.730,406.03,380.90,1014.55,1015.19,29.73,29.62,36.07,11.36,569.06,34.05,1014.55,132.50,12.80,58.50,16.08,387.14,2,365.36,2,21.78,0.83,13.94,215.80,28.43
AOML_Brown,RB200708,255.152,12092007,03:38:26,31.903,-78.682,-999.99,380.90,1014.86,1015.49,29.64,29.49,36.11,11.44,569.00,33.93,1014.86,134.10,11.60,62.50,12.18,-999.99,4,365.36,2,-999.99,0.80,10.50,221.89,28.58
AOML_Brown,RB200708,255.155,12092007,03:43:06,31.893,-78.669,407.53,380.90,1014.86,1015.53,29.66,29.51,36.08,11.54,569.08,33.93,1014.86,130.20,11.70,69.50,13.68,388.22,2,365.36,2,22.86,0.82,12.60,223.33,28.41
AOML_Brown,RB200708,255.158,12092007,03:47:26,31.883,-78.657,406.57,380.90,1014.92,1015.54,29.72,29.58,36.06,11.59,569.27,33.94,1014.92,132.90,11.80,65.40,13.28,387.35,2,365.36,2,21.99,0.81,11.45,219.34,28.23
AOML_Brown,RB200708,255.161,12092007,03:52:06,31.873,-78.643,406.22,380.90,1014.86,1015.53,29.71,29.58,36.08,11.49,569.36,33.94,1014.86,132.40,12.00,56.90,15.58,387.11,2,365.36,2,21.75,0.79,12.62,206.02,28.23
AOML_Brown,RB200708,255.173,12092007,04:08:26,31.836,-78.597,-999.99,380.65,1014.77,1015.57,29.64,29.51,36.05,11.34,569.67,34.01,1014.77,130.50,11.80,66.90,13.08,-999.99,4,365.18,2,-999.99,0.78,11.49,220.24,27.99
AOML_Brown,RB200708,255.176,12092007,04:13:06,31.826,-78.584,403.63,380.65,1014.81,1015.47,29.63,29.51,36.04,11.35,570.06,34.01,1014.81,132.80,11.90,60.10,15.48,384.85,2,365.18,2,19.67,0.77,12.72,208.05,28.01
AOML_Brown,RB200708,255.179,12092007,04:17:26,31.816,-78.571,402.70,380.65,1014.88,1015.47,29.62,29.49,36.07,11.45,570.15,34.01,1014.88,132.60,11.40,66.70,13.98,383.86,2,365.18,2,18.68,0.76,12.04,216.92,28.01
AOML_Brown,RB200708,255.182,12092007,04:22:06,31.806,-78.558,402.12,380.65,1015.09,1015.59,29.62,29.46,36.05,11.39,570.26,34.00,1015.09,132.60,12.10,55.20,15.28,382.98,2,365.18,2,17.80,0.76,12.21,204.87,28.09
AOML_Brown,RB200708,255.193,12092007,04:38:26,31.769,-78.511,-999.99,380.65,1015.09,1015.77,29.73,29.61,35.99,11.25,569.74,33.99,1015.09,132.60,11.70,56.50,14.78,-999.99,4,365.18,2,-999.99,0.78,11.21,201.48,27.84
AOML_Brown,RB200708,255.197,12092007,04:43:06,31.758,-78.498,402.63,380.65,1015.00,1015.84,29.60,29.47,36.00,11.15,569.64,33.99,1015.00,127.90,11.90,58.00,13.58,383.97,2,365.18,2,18.79,0.78,11.11,207.76,27.89
AOML_Brown,RB200708,255.200,12092007,04:47:26,31.748,-78.485,400.55,380.65,1015.01,1015.76,29.47,29.33,36.09,11.02,569.60,33.98,1015.01,131.50,12.20,61.90,14.78,381.89,2,365.18,2,16.71,0.77,12.25,214.50,27.86
AOML_Brown,RB200708,255.203,12092007,04:52:06,31.738,-78.472,399.32,380.65,1014.89,1015.70,28.96,28.75,36.26,11.14,569.57,33.97,1014.89,131.90,12.70,56.20,15.58,380.07,2,365.18,2,14.89,0.75,12.92,210.88,27.84
AOML_Brown,RB200708,255.214,12092007,05:08:26,31.698,-78.421,-999.99,380.71,1015.18,1015.73,28.66,28.44,36.22,11.19,569.52,34.01,1015.18,133.20,13.30,51.20,14.78,-999.99,4,365.71,2,-999.99,0.81,12.64,220.17,27.36
AOML_Brown,RB200708,255.217,12092007,05:13:06,31.686,-78.406,397.37,380.71,1015.05,1015.83,28.87,28.65,36.18,11.08,569.61,34.01,1015.05,132.90,13.20,51.30,13.88,378.07,2,365.71,2,12.37,0.80,11.96,222.13,27.34
AOML_Brown,RB200708,255.220,12092007,05:17:26,31.675,-78.393,397.11,380.71,1015.03,1015.77,29.06,28.96,36.13,11.00,569.66,33.99,1015.03,133.20,12.90,51.20,12.58,379.61,2,365.71,2,13.91,0.78,10.94,223.64,27.22
AOML_Brown,RB200708,255.223,12092007,05:21:46,31.665,-78.379,397.37,380.71,1015.22,1015.80,29.24,29.09,36.12,11.10,569.67,33.97,1015.22,131.20,13.40,45.40,12.68,379.04,2,365.71,2,13.33,0.78,10.70,222.20,27.29
AOML_Brown,RB200708,255.235,12092007,05:38:26,31.624,-78.327,400.59,380.71,1015.09,1015.74,29.33,29.21,36.09,11.11,569.72,33.99,1015.09,132.40,13.00,45.60,11.88,382.30,2,365.71,2,16.59,0.77,11.00,231.38,27.66
AOML_Brown,RB200708,255.238,12092007,05:43:06,31.613,-78.312,400.45,380.71,1015.03,1015.82,29.53,29.37,35.99,11.05,569.76,33.99,1015.03,130.90,12.70,41.80,12.49,381.45,2,365.71,2,15.74,0.77,11.33,226.47,27.99
AOML_Brown,RB200708,255.241,12092007,05:47:26,31.603,-78.299,401.89,380.71,1015.11,1015.73,29.71,29.64,35.97,11.07,569.76,33.99,1015.11,131.00,12.90,38.10,12.58,384.06,2,365.71,2,18.35,0.77,11.41,226.38,28.01
AOML_Brown,RB200708,255.245,12092007,05:52:06,31.591,-78.285,402.33,380.71,1015.12,1015.68,29.89,29.79,35.90,10.95,569.75,33.97,1015.12,133.70,12.40,41.90,12.88,383.93,2,365.71,2,18.22,0.76,11.68,228.09,28.14
AOML_Brown,RB200708,255.256,12092007,06:08:26,31.552,-78.236,-999.99,380.60,1014.92,1015.75,29.91,29.83,35.95,11.20,569.50,33.99,1014.92,133.40,12.40,38.10,12.58,-999.99,4,365.00,2,-999.99,0.74,11.38,227.55,28.19
AOML_Brown,RB200708,255.259,12092007,06:13:06,31.541,-78.223,403.57,380.60,1014.99,1015.59,29.93,29.83,35.98,11.20,569.56,33.99,1014.99,138.20,12.50,40.00,12.88,385.06,2,365.00,2,20.06,0.73,11.23,228.48,28.19
AOML_Brown,RB200708,255.262,12092007,06:17:26,31.531,-78.210,403.25,380.60,1014.94,1015.71,29.91,29.79,36.00,11.23,569.60,33.98,1014.94,131.30,12.80,47.40,12.68,384.36,2,365.00,2,19.36,0.74,12.07,230.58,28.23
AOML_Brown,RB200708,255.265,12092007,06:21:46,31.521,-78.196,403.34,380.60,1014.95,1015.61,29.87,29.76,36.03,11.15,569.60,33.96,1014.95,129.70,12.40,44.30,13.18,384.57,2,365.00,2,19.57,0.74,12.07,225.00,28.33
AOML_Brown,RB200708,255.277,12092007,06:38:26,31.481,-78.146,-999.99,380.60,1014.88,1015.63,29.67,29.56,36.16,11.15,569.69,33.97,1014.88,134.20,13.10,41.70,12.58,-999.99,4,365.00,2,-999.99,0.71,10.61,223.23,28.38
AOML_Brown,RB200708,255.280,12092007,06:43:06,31.469,-78.132,404.64,380.60,1014.92,1015.66,29.49,29.35,36.17,11.23,569.71,33.98,1014.92,133.30,13.10,44.80,11.48,385.71,2,365.00,2,20.71,0.70,10.08,229.68,28.21
AOML_Brown,RB200708,255.283,12092007,06:47:26,31.458,-78.118,403.43,380.60,1014.87,1015.68,29.29,29.13,36.19,11.24,569.70,33.97,1014.87,133.30,12.90,45.00,10.89,384.35,2,365.00,2,19.34,0.70,9.54,230.79,28.26
AOML_Brown,RB200708,255.286,12092007,06:51:46,31.448,-78.105,403.04,380.60,1014.89,1015.63,29.26,29.09,36.18,11.10,569.71,33.95,1014.89,133.30,12.80,45.80,11.39,383.93,2,365.00,2,18.92,0.70,10.02,229.31,28.46
AOML_Brown,RB200708,255.298,12092007,07:08:26,31.407,-78.053,-999.99,380.34,1014.97,1015.67,29.19,29.07,36.19,11.11,569.44,33.97,1014.97,132.40,12.90,43.90,12.38,-999.99,4,365.32,2,-999.99,0.70,10.04,219.53,28.21
AOML_Brown,RB200708,255.301,12092007,07:13:06,31.395,-78.038,402.56,380.34,1014.92,1015.67,29.23,29.08,36.18,11.21,569.55,33.98,1014.92,132.90,13.20,40.60,11.48,383.70,2,365.32,2,18.38,0.70,9.08,221.57,28.09
AOML_Brown,RB200708,255.304,12092007,07:17:26,31.384,-78.025,402.35,380.34,1014.98,1015.64,29.19,29.07,36.18,11.18,569.47,33.97,1014.98,132.80,13.10,47.30,10.89,384.15,2,365.32,2,18.84,0.70,9.25,228.31,28.06
AOML_Brown,RB200708,255.307,12092007,07:21:46,31.374,-78.012,402.59,380.34,1014.86,1015.70,29.20,29.08,36.18,11.14,569.46,33.96,1014.86,132.50,12.90,50.30,11.79,384.45,2,365.32,2,19.13,0.70,10.23,226.57,28.09
AOML_Brown,RB200708,255.318,12092007,07:38:26,31.333,-77.961,-999.99,380.34,1014.96,1015.82,29.22,29.11,36.18,11.22,569.67,33.96,1014.96,132.60,12.80,49.20,10.98,-999.99,4,365.32,2,-999.99,0.71,9.10,225.29,28.23
AOML_Brown,RB200708,255.322,12092007,07:43:06,31.321,-77.947,403.56,380.34,1015.14,1015.84,29.25,29.10,36.18,11.06,569.71,33.96,1015.14,132.30,12.80,44.50,10.98,384.87,2,365.32,2,19.55,0.71,8.54,220.35,28.11
AOML_Brown,RB200708,255.325,12092007,07:47:26,31.311,-77.934,403.21,380.34,1014.96,1015.86,29.26,29.10,36.18,11.22,569.88,33.95,1014.96,132.40,12.90,47.80,10.28,384.33,2,365.32,2,19.01,0.71,8.24,226.57,28.26
AOML_Brown,RB200708,255.328,12092007,07:51:46,31.300,-77.921,402.96,380.34,1014.99,1015.72,29.24,29.11,36.18,11.17,569.97,33.93,1014.99,133.80,12.70,46.80,9.79,384.64,2,365.32,2,19.32,0.72,7.65,227.72,28.23
AOML_Brown,RB200708,255.339,12092007,08:08:26,31.260,-77.870,-999.99,379.76,1015.07,1015.83,29.30,29.15,36.18,11.33,569.97,33.97,1015.07,132.60,12.70,45.60,8.79,-999.99,4,364.82,2,-999.99,0.76,6.52,228.37,28.16
AOML_Brown,RB200708,255.342,12092007,08:13:06,31.248,-77.856,402.52,379.76,1015.10,1015.84,29.28,29.15,36.19,11.11,570.00,33.98,1015.10,131.50,12.60,50.40,10.28,384.03,2,364.82,2,19.21,0.73,8.05,221.97,28.19
AOML_Brown,RB200708,255.345,12092007,08:17:26,31.238,-77.843,402.27,379.76,1015.10,1015.86,29.30,29.14,36.19,11.26,569.99,33.97,1015.10,131.80,12.50,51.50,11.19,383.47,2,364.82,2,18.65,0.72,9.04,216.74,28.23
AOML_Brown,RB200708,255.348,12092007,08:21:46,31.228,-77.830,402.22,379.76,1015.22,1015.89,29.28,29.14,36.19,11.14,570.08,33.96,1015.22,132.10,12.50,47.50,10.39,383.72,2,364.82,2,18.90,0.71,7.78,217.69,28.21
AOML_Brown,RB200708,255.360,12092007,08:38:26,31.190,-77.780,404.06,379.76,1015.07,1015.87,29.36,29.26,36.12,11.21,570.33,33.96,1015.07,131.80,12.40,51.90,10.28,385.91,2,364.82,2,21.10,0.70,7.97,221.16,28.21
AOML_Brown,RB200708,255.363,12092007,08:43:06,31.179,-77.766,403.71,379.76,1015.06,1015.84,29.50,29.36,36.14,11.12,570.36,33.96,1015.06,132.50,12.60,47.00,10.59,384.95,2,364.82,2,20.13,0.71,7.62,215.72,28.36
AOML_Brown,RB200708,255.366,12092007,08:47:26,31.168,-77.753,403.85,379.76,1015.09,1015.79,29.51,29.41,36.14,11.19,570.35,33.95,1015.09,132.10,12.60,52.20,10.89,385.55,2,364.82,2,20.74,0.71,8.37,219.32,28.31
AOML_Brown,RB200708,255.369,12092007,08:51:46,31.158,-77.740,403.75,379.76,1015.28,1015.92,29.52,29.40,36.16,11.18,570.35,33.94,1015.28,132.40,12.70,52.30,10.98,385.32,2,364.82,2,20.51,0.69,8.45,219.33,28.26
AOML_Brown,RB200708,255.381,12092007,09:08:26,31.118,-77.689,-999.99,379.71,1015.35,1016.11,29.28,29.14,36.22,11.10,570.35,33.97,1015.35,132.40,12.60,50.60,11.29,-999.99,4,365.45,2,-999.99,0.69,8.41,215.33,28.23
AOML_Brown,RB200708,255.384,12092007,09:13:06,31.107,-77.675,400.32,379.71,1015.37,1016.14,29.21,29.07,36.21,11.12,570.43,33.98,1015.37,132.30,12.60,50.30,10.19,381.95,2,365.45,2,16.50,0.69,7.35,217.67,28.11
AOML_Brown,RB200708,255.387,12092007,09:17:26,31.097,-77.662,399.33,379.71,1015.38,1016.11,29.16,29.02,36.23,11.10,570.45,33.98,1015.38,131.90,12.60,50.20,10.69,381.13,2,365.45,2,15.68,0.69,7.85,215.71,28.01
AOML_Brown,RB200708,255.390,12092007,09:21:46,31.086,-77.649,399.28,379.71,1015.38,1016.13,29.03,28.88,36.23,11.26,570.46,33.96,1015.38,132.00,12.70,42.20,10.39,381.01,2,365.45,2,15.55,0.69,6.76,208.84,28.09
AOML_Brown,RB200708,255.402,12092007,09:38:26,31.047,-77.599,403.31,379.71,1015.21,1016.08,28.45,28.25,36.21,11.34,570.51,33.96,1015.21,132.20,12.60,42.50,10.89,384.34,2,365.45,2,18.89,0.67,7.43,209.40,27.84
AOML_Brown,RB200708,255.405,12092007,09:43:06,31.036,-77.585,403.38,379.71,1015.11,1015.88,28.46,28.27,36.22,11.15,570.52,33.96,1015.11,132.20,12.50,43.50,10.98,384.66,2,365.45,2,19.20,0.68,7.53,209.10,27.94
AOML_Brown,RB200708,255.408,12092007,09:47:26,31.026,-77.572,403.77,379.71,1015.05,1015.82,28.49,28.30,36.21,11.13,570.59,33.96,1015.05,133.30,12.50,44.00,10.98,385.00,2,365.45,2,19.55,0.68,7.64,210.99,27.91
AOML_Brown,RB200708,255.411,12092007,09:51:46,31.015,-77.559,403.89,379.71,1015.13,1015.76,28.49,28.30,36.23,11.20,570.57,33.95,1015.13,133.70,12.50,41.40,10.28,385.15,2,365.45,2,19.69,0.68,6.91,213.00,27.86
AOML_Brown,RB200708,255.423,12092007,10:08:26,30.976,-77.510,-999.99,379.88,1015.27,1015.95,28.56,28.40,36.25,11.29,570.47,33.97,1015.27,133.10,12.50,47.70,10.19,-999.99,4,365.48,2,-999.99,0.68,7.54,218.17,27.96
AOML_Brown,RB200708,255.426,12092007,10:13:06,30.965,-77.496,406.63,379.88,1015.39,1016.06,28.59,28.42,36.26,11.26,570.50,33.97,1015.39,132.70,12.40,49.40,10.89,388.06,2,365.48,2,22.58,0.67,8.25,217.40,28.01
AOML_Brown,RB200708,255.429,12092007,10:17:26,30.955,-77.484,407.59,379.88,1015.31,1016.09,28.60,28.44,36.29,11.14,570.50,33.97,1015.31,132.10,12.30,48.20,10.69,389.25,2,365.48,2,23.77,0.67,8.11,218.24,28.04
AOML_Brown,RB200708,255.432,12092007,10:21:46,30.945,-77.471,408.43,379.88,1015.32,1016.00,28.62,28.46,36.28,11.15,570.53,33.96,1015.32,133.40,12.30,43.50,10.89,389.84,2,365.48,2,24.37,0.67,7.71,211.46,27.96
AOML_Brown,RB200708,255.443,12092007,10:38:26,30.907,-77.422,-999.99,379.88,1015.33,1015.92,28.64,28.47,36.27,11.03,570.54,33.97,1015.33,131.90,12.30,47.00,11.39,-999.99,4,365.48,2,-999.99,0.68,8.51,213.53,27.91
AOML_Brown,RB200708,255.447,12092007,10:43:06,30.896,-77.409,409.88,379.88,1015.39,1016.13,28.63,28.47,36.28,11.14,570.52,33.97,1015.39,132.40,12.30,54.00,10.28,391.30,2,365.48,2,25.82,0.67,8.45,225.61,27.71
AOML_Brown,RB200708,255.450,12092007,10:47:26,30.886,-77.396,409.55,379.88,1015.43,1016.14,28.63,28.47,36.27,11.34,570.44,33.96,1015.43,132.60,12.30,42.60,10.59,391.09,2,365.48,2,25.61,0.66,7.53,213.15,27.94
AOML_Brown,RB200708,255.453,12092007,10:51:46,30.876,-77.383,409.62,379.88,1015.41,1016.12,28.63,28.47,36.27,11.12,570.40,33.95,1015.41,132.60,12.10,35.10,10.19,391.09,2,365.48,2,25.62,0.67,6.23,204.11,27.94
AOML_Brown,RB200708,255.464,12092007,11:08:26,30.838,-77.336,-999.99,380.06,1015.39,1015.80,28.60,28.44,36.24,11.25,570.40,33.97,1015.39,133.60,11.80,25.60,17.78,-999.99,4,365.78,2,-999.99,0.67,12.72,172.99,26.72
AOML_Brown,RB200708,255.467,12092007,11:13:06,30.828,-77.323,408.97,380.06,1015.68,1016.00,28.62,28.45,36.20,11.22,570.59,33.97,1015.68,131.80,11.50,8.50,16.58,390.51,2,365.78,2,24.73,0.67,10.77,148.61,26.05
AOML_Brown,RB200708,255.470,12092007,11:17:26,30.818,-77.311,408.41,380.06,1015.78,1016.20,28.58,28.44,36.20,11.17,570.59,33.95,1015.78,133.20,12.00,329.60,9.99,390.55,2,365.78,2,24.77,0.68,5.46,69.78,25.13
AOML_Brown,RB200708,255.473,12092007,11:21:46,30.808,-77.298,407.90,380.06,1015.75,1016.51,28.64,28.47,36.16,11.21,570.54,33.93,1015.75,133.10,12.20,337.40,8.09,389.36,2,365.78,2,23.58,0.68,3.10,67.70,25.43
AOML_Brown,RB200708,255.485,12092007,11:38:26,30.769,-77.250,-999.99,380.06,1015.57,1016.21,28.60,28.45,36.27,11.12,570.52,33.94,1015.57,132.30,12.00,46.90,12.09,-999.99,4,365.78,2,-999.99,0.68,9.24,211.04,28.11
AOML_Brown,RB200708,255.488,12092007,11:42:46,30.760,-77.238,409.11,380.06,1015.56,1016.23,28.57,28.40,36.29,11.30,570.59,33.94,1015.56,132.30,11.90,47.60,12.88,390.56,2,365.78,2,24.78,0.68,10.09,210.55,28.19
AOML_Brown,RB200708,255.491,12092007,11:47:26,30.749,-77.224,408.99,380.06,1015.59,1016.21,28.58,28.41,36.30,11.19,570.64,33.95,1015.59,131.30,11.90,45.30,12.49,390.38,2,365.78,2,24.60,0.68,9.57,208.92,28.16
AOML_Brown,RB200708,255.494,12092007,11:51:46,30.739,-77.212,408.76,380.06,1015.71,1016.30,28.57,28.40,36.29,11.18,570.70,33.95,1015.71,133.10,11.80,46.40,11.39,390.38,2,365.78,2,24.61,0.68,8.72,213.91,28.26
AOML_Brown,RB200708,255.506,12092007,12:08:26,30.702,-77.165,-999.99,379.99,1015.98,1016.57,28.52,28.35,36.22,11.34,570.58,33.99,1015.98,132.60,11.70,44.80,11.98,-999.99,4,366.07,2,-999.99,0.68,9.01,208.58,28.23
AOML_Brown,RB200708,255.509,12092007,12:13:06,30.692,-77.153,405.29,379.99,1015.98,1016.69,28.52,28.38,36.23,11.17,570.65,33.99,1015.98,131.60,11.70,46.40,11.88,387.45,2,366.07,2,21.38,0.68,9.16,210.62,27.84
AOML_Brown,RB200708,255.512,12092007,12:17:26,30.682,-77.141,404.62,379.99,1016.04,1016.67,28.51,28.34,36.23,11.22,570.66,33.96,1016.04,131.90,11.50,44.30,11.98,386.59,2,366.07,2,20.52,0.68,9.13,208.29,28.01
AOML_Brown,RB200708,255.515,12092007,12:21:46,30.673,-77.129,404.55,379.99,1016.15,1016.77,28.53,28.36,36.21,11.12,570.65,33.94,1016.15,132.50,11.60,45.70,11.68,386.45,2,366.07,2,20.38,0.68,8.92,210.73,28.16
AOML_Brown,RB200708,255.527,12092007,12:38:26,30.637,-77.083,-999.99,379.99,1016.52,1017.26,28.49,28.32,36.20,11.19,570.62,33.94,1016.52,133.00,11.60,26.60,8.59,-999.99,4,366.07,2,-999.99,0.68,4.31,201.53,27.61
AOML_Brown,RB200708,255.530,12092007,12:42:46,30.627,-77.071,403.73,379.99,1016.56,1017.17,28.45,28.28,36.20,11.03,570.64,33.95,1016.56,132.60,11.60,38.50,9.69,385.87,2,366.07,2,19.80,0.69,6.46,210.49,27.27
AOML_Brown,RB200708,255.533,12092007,12:47:26,30.617,-77.058,402.83,379.99,1016.62,1017.25,28.43,28.26,36.19,11.14,570.64,33.95,1016.62,132.50,11.50,40.30,11.19,385.13,2,366.07,2,19.06,0.69,7.89,204.32,26.77